Volver al catálogo

STARLINK-37287

ActivoComunicacionesSSO
NORAD 68684·PAYLOAD·🇺🇸 United States

Lanzado Apr 11, 2026 desde Vandenberg Space Force Base

Loading…

Próximos Pases (próximas 24 horas)

TLE

ActualizadoSource: CelesTrak SupGP

Época: Sep 14, 2026, 21:19 UTC

1 68684C 26077Y   26257.88868056  .00005141  00000+0  15966-3 0  2572
2 68684  97.2848 127.9264 0001684  93.3976  34.0003 15.33423550    11

Sigue STARLINK-37287 en tiempo real con AllMySat

Download on the App Store